Torna al catalogo

COSMOS 1275 DEB

AttivoPO
NORAD 12950·DEBRIS·🇷🇺 Russia

Lanciato Jun 4, 1981 da Plesetsk Cosmodrome

Loading…

Prossimi Passaggi (prossime 24 ore)

TLE

AggiornatoSource: Space-Track

Epoca: Sep 14, 2026, 07:33 UTC

1 12950U 81053EE  26257.31486887  .00000511  00000-0  24101-3 0  9999
2 12950  83.0137   9.2003 0051581  26.2282   2.5086 14.17395459313351

Traccia COSMOS 1275 DEB in tempo reale con AllMySat

Download on the App Store